Location: Wald
(31.7579°N, 86.6655°W)
Time: 12:02:59
(UTC+00:00)

Cosmos 1812 Rocket - Pass Details

Date: 14 July 2020
Orbit: 605 x 633 km, 82.5° (Epoch: 08 August)

Event Time Altitude Azimuth Distance (km) Brightness Sun altitude
Rises 01:51:19 0° 346° (NNW) 2,862 7.8 -11.4°
Reaches altitude 10° 01:53:35 10° 341° (NNW) 1,956 7.0 -11.8°
Maximum altitude 01:57:44 48° 267° (W) 794 4.5 -12.5°
Drops below altitude 10° 02:01:53 10° 193° (SSW) 1,951 5.9 -13.2°
Sets 02:04:09 0° 188° (S) 2,854 6.7 -13.6°
Enters shadow 02:04:11 - 188° (S) 2,868 6.7 -13.6°
